Location: Be?chatów
(51.3665°N, 19.3745°E)
Time: 22:46:51
(UTC+00:00)

SL-16 R/B - Pass Details

Date: 19 May 2025
Orbit: 841 x 844 km, 71.0° (Epoch: 16 June)

Event Time Altitude Azimuth Distance (km) Brightness Sun altitude
Rises 19:12:54 0° 328° (NNW) 3,414 7.2 -5.7°
Reaches altitude 10° 19:16:22 10° 349° (N) 2,477 5.6 -6.1°
Maximum altitude 19:19:52 16° 28° (NNE) 2,060 4.4 -6.4°
Drops below altitude 10° 19:23:21 10° 66° (ENE) 2,473 4.4 -6.8°
Sets 19:26:48 0° 87° (E) 3,405 4.9 -7.2°
